OAL094C LGRP-LGKP

Flight info

Callsign OAL094C
Flight time 0h 28m
Altitude 12000
Route ROXOL G80 KPC
Aircraft AT46/M-SDFGIRY/S

Departure

Time 2026-05-04 07:51
Airport Rhodes International Airport "Diagoras" (LGRP)

Arrival

Time 2026-05-04 08:19
Airport Karpathos Airport (LGKP)
Time Latitude Longitude Altitude Speed Heading
2026-05-04 07:12 36.40513 28.09158 29 ft 0 kts 306°
2026-05-04 07:45 36.40514 28.09152 25 ft 1 kts 272°
2026-05-04 07:46 36.40494 28.09143 25 ft 8 kts 160°
2026-05-04 07:46 36.40476 28.09257 25 ft 19 kts 72°
2026-05-04 07:46 36.40535 28.09369 27 ft 14 kts 36°
2026-05-04 07:46 36.40596 28.09445 26 ft 13 kts 66°
2026-05-04 07:47 36.40635 28.09572 26 ft 18 kts 69°
2026-05-04 07:47 36.40681 28.09725 26 ft 20 kts 68°
2026-05-04 07:47 36.40724 28.09874 25 ft 20 kts 69°
2026-05-04 07:49 36.40938 28.10434 25 ft 0 kts 343°
2026-05-04 07:49 36.40957 28.10424 26 ft 6 kts 331°
2026-05-04 07:49 36.40974 28.10408 24 ft 0 kts 317°
2026-05-04 07:50 36.40981 28.10398 24 ft 8 kts 307°
2026-05-04 07:50 36.41014 28.10308 23 ft 14 kts 284°
2026-05-04 07:50 36.40979 28.10100 25 ft 56 kts 252°
2026-05-04 07:50 36.40735 28.09388 108 ft 112 kts 252°
2026-05-04 07:51 36.40383 28.08464 598 ft 126 kts 257°
2026-05-04 07:51 36.40048 28.07368 1196 ft 137 kts 259°
2026-05-04 07:51 36.39818 28.06254 1953 ft 131 kts 272°
2026-05-04 07:51 36.39619 28.05133 2547 ft 141 kts 271°
2026-05-04 07:52 36.39421 28.03858 2760 ft 167 kts 269°
2026-05-04 07:52 36.39210 28.02395 3250 ft 164 kts 276°
2026-05-04 07:52 36.39150 28.01023 4058 ft 152 kts 277°
2026-05-04 07:52 36.39076 27.99706 4580 ft 160 kts 279°
2026-05-04 07:53 36.39015 27.98319 5059 ft 166 kts 277°
2026-05-04 07:54 36.38453 27.88114 8674 ft 174 kts 277°
2026-05-04 07:55 36.38340 27.86609 9158 ft 181 kts 264°
2026-05-04 07:55 36.37548 27.85307 9632 ft 202 kts 223°
2026-05-04 07:55 36.36304 27.84407 10016 ft 210 kts 215°
2026-05-04 07:55 36.34988 27.83603 10444 ft 212 kts 212°
2026-05-04 07:56 36.33649 27.82836 10922 ft 211 kts 212°
2026-05-04 07:56 36.32317 27.82066 11367 ft 210 kts 212°
2026-05-04 07:56 36.31003 27.81305 11865 ft 209 kts 213°
2026-05-04 07:56 36.29622 27.80477 11933 ft 232 kts 215°
2026-05-04 07:57 36.28147 27.79469 11960 ft 252 kts 215°
2026-05-04 07:57 36.26505 27.78436 11976 ft 269 kts 212°
2026-05-04 07:57 36.24795 27.77419 11982 ft 282 kts 211°
2026-05-04 07:57 36.22977 27.76330 11985 ft 291 kts 211°
2026-05-04 07:58 36.21148 27.75198 11983 ft 296 kts 212°
2026-05-04 07:58 36.19285 27.74047 11985 ft 302 kts 211°
2026-05-04 07:58 36.17398 27.72890 11989 ft 303 kts 212°
2026-05-04 07:58 36.15501 27.71731 12001 ft 304 kts 211°
2026-05-04 07:59 36.13600 27.70564 11992 ft 305 kts 211°
2026-05-04 07:59 36.11711 27.69429 11992 ft 300 kts 212°
2026-05-04 07:59 36.09854 27.68282 12001 ft 296 kts 212°
2026-05-04 07:59 36.07998 27.67171 12003 ft 297 kts 211°
2026-05-04 08:00 36.06106 27.66132 12005 ft 298 kts 210°
2026-05-04 08:00 36.04215 27.65109 12010 ft 297 kts 209°
2026-05-04 08:00 36.02318 27.64104 12017 ft 296 kts 210°
2026-05-04 08:02 35.89243 27.56952 12027 ft 293 kts 209°
2026-05-04 08:02 35.87389 27.55917 12026 ft 293 kts 210°
2026-05-04 08:02 35.85515 27.54906 12027 ft 295 kts 208°
2026-05-04 08:03 35.83602 27.53899 12028 ft 296 kts 208°
2026-05-04 08:03 35.81741 27.52862 12029 ft 298 kts 211°
2026-05-04 08:03 35.79821 27.51787 12019 ft 300 kts 211°
2026-05-04 08:03 35.77940 27.50755 12025 ft 299 kts 210°
2026-05-04 08:04 35.76176 27.49482 12021 ft 291 kts 223°
2026-05-04 08:04 35.74630 27.47882 11649 ft 288 kts 228°
2026-05-04 08:04 35.73160 27.46239 11289 ft 284 kts 227°
2026-05-04 08:04 35.71670 27.44656 10937 ft 282 kts 226°
2026-05-04 08:05 35.70167 27.43117 10590 ft 281 kts 226°
2026-05-04 08:05 35.68652 27.41591 10248 ft 281 kts 226°
2026-05-04 08:05 35.67145 27.40062 9895 ft 281 kts 225°
2026-05-04 08:05 35.65639 27.38531 9526 ft 281 kts 225°
2026-05-04 08:06 35.64142 27.36993 9157 ft 280 kts 225°
2026-05-04 08:06 35.62640 27.35462 8781 ft 281 kts 225°
2026-05-04 08:06 35.61142 27.33932 8415 ft 279 kts 227°
2026-05-04 08:06 35.59639 27.32424 8062 ft 279 kts 226°
2026-05-04 08:08 35.49348 27.21941 5686 ft 264 kts 227°
2026-05-04 08:08 35.47934 27.20523 5349 ft 261 kts 227°
2026-05-04 08:10 35.36280 27.16108 4056 ft 244 kts 150°
2026-05-04 08:11 35.34811 27.17147 3999 ft 245 kts 150°
2026-05-04 08:11 35.31912 27.19261 3719 ft 237 kts 149°
2026-05-04 08:11 35.30516 27.20295 3566 ft 233 kts 149°
2026-05-04 08:12 35.29143 27.21319 3418 ft 229 kts 149°
2026-05-04 08:12 35.27791 27.22331 3261 ft 226 kts 149°
2026-05-04 08:12 35.26685 27.23608 3140 ft 214 kts 112°
2026-05-04 08:12 35.26168 27.25234 3091 ft 197 kts 95°
2026-05-04 08:13 35.26307 27.26751 3078 ft 171 kts 46°
2026-05-04 08:13 35.27140 27.27559 3063 ft 147 kts 10°
2026-05-04 08:13 35.28107 27.27910 3048 ft 145 kts
2026-05-04 08:13 35.29097 27.28191 2979 ft 148 kts
2026-05-04 08:14 35.30119 27.28406 2898 ft 147 kts 354°
2026-05-04 08:14 35.31089 27.28175 2835 ft 140 kts 339°
2026-05-04 08:14 35.32021 27.27809 2764 ft 141 kts 337°
2026-05-04 08:16 35.36884 27.23408 1746 ft 112 kts 311°
2026-05-04 08:16 35.37310 27.22605 1506 ft 109 kts 306°
2026-05-04 08:16 35.37692 27.21870 1452 ft 99 kts 310°
2026-05-04 08:17 35.38116 27.21179 1282 ft 100 kts 311°
2026-05-04 08:17 35.38511 27.20483 1104 ft 99 kts 310°
2026-05-04 08:17 35.38918 27.19796 925 ft 98 kts 312°
2026-05-04 08:17 35.39371 27.19188 734 ft 97 kts 313°
2026-05-04 08:19 35.41969 27.14807 45 ft 27 kts 303°
2026-05-04 08:19 35.42060 27.14652 42 ft 18 kts 306°
2026-05-04 08:20 35.42124 27.14541 39 ft 14 kts 305°
2026-05-04 08:20 35.42177 27.14447 37 ft 13 kts 304°
2026-05-04 08:20 35.42236 27.14345 33 ft 16 kts 304°
2026-05-04 08:20 35.42306 27.14222 31 ft 18 kts 306°
2026-05-04 08:21 35.42373 27.14104 32 ft 16 kts 304°
2026-05-04 08:21 35.42436 27.14038 32 ft 10 kts 13°
2026-05-04 08:21 35.42517 27.14161 31 ft 24 kts 58°
2026-05-04 08:21 35.42601 27.14330 31 ft 19 kts 59°
2026-05-04 08:22 35.42671 27.14471 28 ft 15 kts 59°
2026-05-04 08:22 35.42679 27.14561 27 ft 12 kts 130°
2026-05-04 08:24 35.42651 27.14816 23 ft 1 kts 314°
2026-05-04 08:24 35.42658 27.14808 22 ft 2 kts 315°